When you browse on this site, cookies collect data to enhance your experience and personalize the content and advertising you see.
Visit our Privacy Policy to learn more. By continuing to use the site, you agree to this use of cookies and data.

Stündliche Wetter Anif

Heute, 15 Juli, Mittwoch

Zeit Temperatur Niederschläge Wind Luftdruck Luftfeuchtigkeit
00:00 +12°C° 0 mm 1 m/S 691 mmHg 86%
01:00 +12°C° 0 mm 2 m/S 691 mmHg 86%
02:00 +12°C° 0 mm 2 m/S 690 mmHg 87%
03:00 +12°C° 0 mm 2 m/S 690 mmHg 87%
04:00 +12°C° 0 mm 1 m/S 690 mmHg 87%
05:00 +13°C° 0 mm 1 m/S 690 mmHg 85%
06:00 +14°C° 0 mm 1 m/S 690 mmHg 82%
07:00 +16°C° 0 mm 1 m/S 691 mmHg 79%
08:00 +18°C° 0.4 mm 1 m/S 691 mmHg 79%
09:00 +19°C° 0.4 mm 1 m/S 691 mmHg 78%
10:00 +20°C° 0.4 mm 1 m/S 691 mmHg 77%
11:00 +20°C° 1.1 mm 1 m/S 691 mmHg 79%
12:00 +20°C° 1.1 mm 1 m/S 691 mmHg 81%
13:00 +19°C° 1.1 mm 2 m/S 691 mmHg 83%
14:00 +19°C° 1.1 mm 2 m/S 691 mmHg 85%
15:00 +18°C° 1.1 mm 2 m/S 691 mmHg 87%
16:00 +18°C° 1.1 mm 2 m/S 691 mmHg 89%
17:00 +17°C° 1.8 mm 2 m/S 691 mmHg 92%
18:00 +16°C° 1.8 mm 2 m/S 691 mmHg 95%
19:00 +14°C° 1.8 mm 2 m/S 691 mmHg 97%
20:00 +14°C° 1.4 mm 1 m/S 691 mmHg 98%
21:00 +14°C° 1.4 mm 1 m/S 692 mmHg 98%
22:00 +13°C° 1.4 mm 1 m/S 692 mmHg 98%
23:00 +13°C° 0.3 mm 1 m/S 692 mmHg 98%

Morgen, 16 Juli, Donnerstag

Zeit Temperatur Niederschläge Wind Luftdruck Luftfeuchtigkeit
00:00 +12°C° 0.3 mm 1 m/S 692 mmHg 98%
01:00 +11°C° 0.3 mm 1 m/S 692 mmHg 98%
02:00 +11°C° 0 mm 1 m/S 692 mmHg 97%
03:00 +11°C° 0 mm 1 m/S 692 mmHg 96%
04:00 +10°C° 0 mm 1 m/S 692 mmHg 96%
05:00 +11°C° 0 mm 1 m/S 692 mmHg 95%
06:00 +12°C° 0 mm 1 m/S 692 mmHg 94%
07:00 +13°C° 0 mm 1 m/S 692 mmHg 93%
08:00 +13°C° 0.2 mm 1 m/S 693 mmHg 91%
09:00 +14°C° 0.2 mm 1 m/S 693 mmHg 90%
10:00 +15°C° 0.2 mm 1 m/S 693 mmHg 88%
11:00 +16°C° 0.1 mm 1 m/S 693 mmHg 78%
12:00 +18°C° 0.1 mm 2 m/S 693 mmHg 69%
13:00 +19°C° 0.1 mm 2 m/S 693 mmHg 59%
14:00 +18°C° 0.2 mm 2 m/S 693 mmHg 68%
15:00 +17°C° 0.2 mm 2 m/S 693 mmHg 76%
16:00 +16°C° 0.2 mm 2 m/S 692 mmHg 85%
17:00 +15°C° 0.3 mm 2 m/S 692 mmHg 88%
18:00 +15°C° 0.3 mm 1 m/S 692 mmHg 92%
19:00 +14°C° 0.3 mm 1 m/S 692 mmHg 96%
20:00 +13°C° 0.9 mm 1 m/S 692 mmHg 97%
21:00 +13°C° 0.9 mm 1 m/S 692 mmHg 97%
22:00 +13°C° 0.9 mm 1 m/S 692 mmHg 98%
23:00 +12°C° 1.4 mm 1 m/S 692 mmHg 98%

übermorgen, 17 Juli, Freitag

Zeit Temperatur Niederschläge Wind Luftdruck Luftfeuchtigkeit
00:00 +12°C° 1.4 mm 1 m/S 692 mmHg 98%
01:00 +12°C° 1.4 mm 1 m/S 692 mmHg 99%
02:00 +12°C° 2.5 mm 1 m/S 692 mmHg 99%
03:00 +12°C° 2.5 mm 1 m/S 692 mmHg 99%
04:00 +12°C° 2.5 mm 1 m/S 691 mmHg 98%
05:00 +12°C° 1.4 mm 1 m/S 692 mmHg 98%
06:00 +12°C° 1.4 mm 1 m/S 692 mmHg 98%
07:00 +11°C° 1.4 mm 1 m/S 692 mmHg 98%
08:00 +13°C° 0.3 mm 1 m/S 692 mmHg 92%
09:00 +14°C° 0.3 mm 1 m/S 693 mmHg 86%
10:00 +16°C° 0.3 mm 1 m/S 693 mmHg 80%
11:00 +18°C° 0.3 mm 1 m/S 693 mmHg 73%
12:00 +18°C° 0.3 mm 2 m/S 693 mmHg 67%
13:00 +19°C° 0.3 mm 2 m/S 693 mmHg 61%
14:00 +18°C° 0.5 mm 2 m/S 693 mmHg 67%
15:00 +18°C° 0.5 mm 2 m/S 692 mmHg 73%
16:00 +17°C° 0.5 mm 2 m/S 692 mmHg 79%
17:00 +16°C° 0.3 mm 2 m/S 692 mmHg 83%
18:00 +15°C° 0.3 mm 1 m/S 692 mmHg 86%
19:00 +15°C° 0.3 mm 1 m/S 692 mmHg 90%
20:00 +14°C° 0.4 mm 1 m/S 693 mmHg 91%
21:00 +13°C° 0.4 mm 1 m/S 693 mmHg 93%
22:00 +12°C° 0.4 mm 1 m/S 693 mmHg 94%
23:00 +12°C° 1.9 mm 1 m/S 693 mmHg 96%

18 Juli, Samstag

Zeit Temperatur Niederschläge Wind Luftdruck Luftfeuchtigkeit
00:00 +12°C° 1.9 mm 1 m/S 693 mmHg 97%
01:00 +12°C° 1.9 mm 1 m/S 693 mmHg 99%
02:00 +12°C° 1.3 mm 1 m/S 693 mmHg 98%
03:00 +11°C° 1.3 mm 1 m/S 693 mmHg 98%
04:00 +11°C° 1.3 mm 1 m/S 693 mmHg 98%
05:00 +12°C° 0.2 mm 1 m/S 693 mmHg 97%
06:00 +12°C° 0.2 mm 1 m/S 693 mmHg 96%
07:00 +13°C° 0.2 mm 1 m/S 693 mmHg 96%
08:00 +13°C° 0.5 mm 1 m/S 693 mmHg 95%
09:00 +14°C° 0.5 mm 1 m/S 693 mmHg 95%
10:00 +14°C° 0.5 mm 1 m/S 693 mmHg 95%
11:00 +15°C° 0.7 mm 1 m/S 693 mmHg 91%
12:00 +16°C° 0.7 mm 1 m/S 693 mmHg 88%
13:00 +18°C° 0.7 mm 1 m/S 693 mmHg 84%
14:00 +18°C° 1 mm 1 m/S 693 mmHg 86%
15:00 +16°C° 1 mm 1 m/S 693 mmHg 88%
16:00 +16°C° 1 mm 2 m/S 693 mmHg 90%
17:00 +15°C° 0.5 mm 1 m/S 693 mmHg 91%
18:00 +15°C° 0.5 mm 1 m/S 693 mmHg 92%
19:00 +15°C° 0.5 mm 1 m/S 693 mmHg 93%
20:00 +14°C° 0 mm 1 m/S 693 mmHg 93%
21:00 +13°C° 0 mm 1 m/S 693 mmHg 93%
22:00 +12°C° 0 mm 1 m/S 693 mmHg 93%
23:00 +11°C° 0 mm 1 m/S 693 mmHg 93%

19 Juli, Sonntag

Zeit Temperatur Niederschläge Wind Luftdruck Luftfeuchtigkeit
00:00 +11°C° 0 mm 1 m/S 693 mmHg 93%
01:00 +10°C° 0 mm 1 m/S 693 mmHg 93%
02:00 +10°C° 0 mm 1 m/S 693 mmHg 93%
03:00 +10°C° 0 mm 1 m/S 692 mmHg 93%
04:00 +9°C° 0 mm 1 m/S 692 mmHg 93%
05:00 +11°C° 0 mm 1 m/S 693 mmHg 91%
06:00 +13°C° 0 mm 1 m/S 693 mmHg 89%
07:00 +13°C° 0 mm 0 m/S 693 mmHg 86%
08:00 +18°C° 0 mm 1 m/S 693 mmHg 76%
09:00 +20°C° 0 mm 1 m/S 694 mmHg 65%
10:00 +22°C° 0 mm 1 m/S 694 mmHg 54%
11:00 +23°C° 0 mm 1 m/S 694 mmHg 52%
12:00 +23°C° 0 mm 1 m/S 694 mmHg 50%
13:00 +23°C° 0 mm 2 m/S 693 mmHg 49%
14:00 +23°C° 0 mm 2 m/S 693 mmHg 50%
15:00 +23°C° 0 mm 2 m/S 693 mmHg 51%
16:00 +23°C° 0 mm 2 m/S 693 mmHg 52%
17:00 +22°C° 0 mm 1 m/S 693 mmHg 61%
18:00 +20°C° 0 mm 1 m/S 693 mmHg 71%
19:00 +17°C° 0 mm 0 m/S 693 mmHg 80%
20:00 +18°C° 0 mm 1 m/S 693 mmHg 82%
21:00 +15°C° 0 mm 1 m/S 693 mmHg 85%
22:00 +14°C° 0 mm 1 m/S 693 mmHg 88%
23:00 +13°C° 0 mm 1 m/S 693 mmHg 87%

20 Juli, Montag

Zeit Temperatur Niederschläge Wind Luftdruck Luftfeuchtigkeit
00:00 +13°C° 0 mm 1 m/S 693 mmHg 87%
01:00 +13°C° 0 mm 1 m/S 693 mmHg 87%
02:00 +13°C° 0 mm 1 m/S 693 mmHg 86%
03:00 +12°C° 0 mm 1 m/S 693 mmHg 86%
04:00 +12°C° 0 mm 1 m/S 693 mmHg 86%
05:00 +14°C° 0 mm 1 m/S 693 mmHg 82%
06:00 +16°C° 0 mm 1 m/S 693 mmHg 77%
07:00 +18°C° 0 mm 1 m/S 694 mmHg 73%
08:00 +20°C° 0 mm 1 m/S 694 mmHg 66%
09:00 +22°C° 0 mm 1 m/S 694 mmHg 59%
10:00 +24°C° 0 mm 1 m/S 694 mmHg 52%
11:00 +24°C° 0.1 mm 1 m/S 694 mmHg 54%
12:00 +25°C° 0.1 mm 2 m/S 694 mmHg 55%
13:00 +25°C° 0.1 mm 2 m/S 694 mmHg 57%
14:00 +24°C° 0.5 mm 2 m/S 694 mmHg 63%
15:00 +23°C° 0.5 mm 2 m/S 694 mmHg 70%
16:00 +21°C° 0.5 mm 2 m/S 693 mmHg 77%
17:00 +20°C° 0.4 mm 2 m/S 694 mmHg 82%
18:00 +19°C° 0.4 mm 2 m/S 694 mmHg 87%
19:00 +19°C° 0.4 mm 1 m/S 694 mmHg 92%
20:00 +16°C° 0.1 mm 1 m/S 694 mmHg 93%
21:00 +15°C° 0.1 mm 1 m/S 694 mmHg 94%
22:00 +14°C° 0.1 mm 1 m/S 695 mmHg 95%
23:00 +14°C° 0 mm 1 m/S 695 mmHg 95%
Mehr zeigen